Wind_Speed
63 64 63 63 67 68 63 59 57 54 53 51 49 48 46 44 43 45 48 48 48 47 45 45 43 42 41 40 40 39 38 38 37 37 38 37 37 36 32 30 30 30
62 62 64 64 67 71 68 63 60 57 55 52 50 48 47 46 45 46 49 50 50 50 48 47 46 44 43 42 41 41 40 40 40 39 39 37 37 35 32 31 30 29
62 61 63 64 67 73 72 66 63 59 56 54 51 50 49 48 47 47 49 51 52 52 50 49 48 47 46 44 44 43 42 42 41 40 40 39 37 35 33 33 31 29
64 62 63 65 67 74 75 69 66 62 58 55 52 51 51 49 49 48 49 52 52 52 51 50 49 48 47 46 45 45 44 43 43 42 41 40 38 36 35 34 32 29
66 64 64 66 67 73 77 72 69 65 61 57 54 52 52 51 50 50 50 52 53 53 52 51 50 49 49 48 46 46 46 45 45 44 42 40 38 37 36 35 33 30
67 67 66 67 67 71 78 75 72 69 64 60 56 54 53 52 51 51 51 52 53 54 53 52 51 50 50 49 47 48 48 48 47 45 43 42 40 38 37 36 34 31
69 70 68 69 68 70 77 79 75 73 69 63 59 57 55 54 53 52 52 51 52 54 53 52 52 51 51 51 50 51 51 50 49 48 46 44 42 40 38 36 34 33
70 72 70 70 70 69 75 81 80 76 72 67 63 60 57 56 55 53 53 52 53 55 54 53 54 53 52 54 54 53 53 52 52 50 48 46 44 43 40 37 35 35
69 73 72 71 71 68 72 81 84 79 75 71 66 63 60 58 57 55 54 53 53 55 54 54 56 55 54 56 56 55 54 53 53 51 50 48 46 44 42 40 38 38
68 72 74 73 72 69 68 77 84 81 77 73 68 66 64 61 59 58 56 55 54 54 54 55 57 57 56 56 56 54 54 54 53 52 50 48 47 46 45 43 41 41
66 71 74 75 74 70 66 72 81 81 77 75 71 68 66 64 62 61 59 57 55 54 55 56 57 58 57 57 56 54 54 54 53 52 51 49 49 48 47 46 44 43
64 69 73 75 74 71 67 69 78 81 78 76 73 69 68 66 65 64 63 60 57 55 56 56 57 58 58 58 57 54 53 53 53 52 51 50 50 50 49 48 47 46
63 68 72 74 74 72 69 69 76 81 79 77 76 72 69 67 66 66 65 63 61 58 56 56 57 59 59 59 58 54 51 52 53 52 51 51 51 51 51 51 49 47
64 69 72 74 75 74 72 70 73 80 80 77 77 74 70 67 66 66 67 66 64 61 58 57 57 58 58 58 57 54 52 52 53 53 52 52 52 52 52 52 51 49
65 68 72 75 75 75 75 72 71 77 81 78 77 75 70 68 67 67 67 68 67 64 60 58 58 59 58 57 57 57 56 53 53 54 53 52 53 53 53 53 52 49
65 69 71 75 76 76 76 74 71 76 81 80 76 74 71 69 68 69 68 68 67 66 64 61 61 61 59 57 57 58 57 54 53 54 54 54 54 54 53 53 52 50
64 70 72 74 77 78 77 75 73 75 81 80 76 74 72 70 70 70 68 67 67 67 66 64 62 61 59 59 58 58 57 57 56 55 55 55 54 54 53 53 52 50
61 70 73 73 76 79 79 76 75 77 81 81 77 74 73 71 71 71 70 68 67 66 66 65 63 61 60 59 59 59 59 59 58 57 56 56 55 54 54 53 52 51
58 68 73 73 74 78 79 77 77 78 81 81 77 74 73 72 72 72 71 69 68 67 65 64 63 62 61 60 59 59 60 60 59 58 57 57 56 55 54 53 52 51
57 65 73 74 74 76 79 80 79 80 82 81 77 75 74 73 73 74 73 71 69 68 66 64 63 62 60 60 59 60 60 61 60 59 58 58 57 55 54 54 53 52
57 63 71 74 75 75 77 81 81 82 83 82 78 76 74 73 74 76 75 73 71 69 68 66 64 62 60 60 60 60 61 61 61 60 60 59 58 57 56 55 54 53
57 63 69 73 75 75 75 79 82 82 84 83 79 76 75 74 75 77 77 76 73 71 69 67 65 63 62 62 62 62 62 62 62 61 61 60 60 59 57 56 54 54
56 61 67 71 73 74 73 75 80 83 85 83 79 75 75 74 74 75 77 77 75 74 71 68 66 64 64 63 62 62 62 62 62 62 62 61 60 59 57 56 55 55
53 56 64 68 70 72 72 73 78 82 85 83 79 74 72 73 72 72 74 75 75 74 72 68 66 65 64 63 63 63 62 62 62 62 62 61 60 59 58 57 56 56
49 49 56 64 67 68 71 73 76 79 81 81 79 74 71 70 70 69 70 72 73 73 71 69 68 67 66 65 64 64 63 62 62 62 61 61 60 59 59 58 58 58
48 46 49 58 64 66 69 72 74 76 76 75 76 74 71 69 68 66 66 69 72 72 72 71 70 69 68 67 66 65 64 63 62 62 61 61 61 61 60 60 59 59
Wind_Direction
233 231 227 221 216 216 217 219 222 223 222 221 222 225 228 230 231 229 226 222 219 215 214 216 217 217 217 217 217 217 216 217 217 216 217 218 221 223 224 224 226 229
230 230 229 223 217 215 215 216 219 221 221 221 221 225 228 228 228 228 225 223 222 218 214 215 217 217 217 218 218 218 217 218 218 218 218 219 220 222 222 223 227 231
229 230 231 227 220 216 214 215 216 219 220 220 221 223 227 227 226 227 225 222 221 220 217 215 217 218 218 218 219 220 219 219 220 219 220 220 221 221 221 222 225 227
228 230 232 230 224 217 214 213 214 216 217 218 220 222 224 225 225 225 225 223 222 222 220 217 218 218 219 218 219 221 221 222 222 221 220 219 218 219 219 220 222 223
226 228 232 233 229 220 214 213 213 214 215 215 218 221 222 223 223 223 223 222 221 221 221 220 218 218 219 219 219 221 223 224 225 224 221 219 217 217 218 219 220 221
224 225 230 232 232 224 216 213 212 213 214 213 214 218 220 221 222 222 223 222 222 222 221 221 220 218 218 218 219 221 223 224 226 227 224 221 218 218 218 219 220 222
224 224 228 230 231 228 220 214 213 212 212 212 212 214 217 219 219 220 221 221 222 222 222 221 220 218 217 217 217 220 222 223 225 227 226 223 220 219 219 220 222 224
225 223 226 228 229 229 223 216 213 212 211 210 210 211 214 217 218 219 219 220 221 221 221 221 220 219 217 217 216 218 221 223 225 226 225 224 222 220 220 221 223 226
226 224 226 228 229 229 227 219 213 213 212 209 208 209 211 214 217 218 219 219 221 221 220 221 222 220 218 217 216 217 220 223 225 226 226 225 225 223 222 222 224 227
226 226 226 227 228 230 230 221 214 213 213 210 208 207 209 212 215 217 218 218 220 221 221 222 223 221 219 219 218 217 219 222 224 226 226 227 227 227 225 223 224 226
224 226 226 226 227 228 230 223 215 213 213 211 209 207 207 209 212 215 216 216 217 219 220 221 223 223 221 220 219 217 218 221 223 225 227 227 229 230 229 226 225 226
224 225 225 225 225 226 229 225 217 214 214 213 211 208 206 208 210 212 214 214 215 217 219 220 222 224 223 221 219 218 218 221 223 225 226 227 229 231 232 230 228 226
225 227 226 225 223 223 227 226 219 216 214 214 213 210 207 207 208 210 212 213 213 214 217 219 220 223 223 222 220 218 218 221 223 225 226 227 230 232 233 233 231 229
223 227 228 226 223 221 224 226 222 217 215 214 214 212 209 208 208 208 210 212 213 213 215 218 220 222 222 223 222 220 219 221 223 225 225 227 229 231 233 235 234 232
221 224 227 227 225 222 222 225 224 218 215 215 215 213 211 209 208 208 208 209 211 212 213 216 218 220 221 222 221 220 221 222 223 225 226 227 229 230 232 234 236 236
219 221 223 225 227 226 223 224 224 219 215 215 215 214 213 211 209 208 207 208 210 211 212 214 216 218 220 220 221 221 222 223 224 225 226 228 229 230 232 234 235 236
218 219 221 222 225 227 225 224 224 219 215 214 214 214 214 213 210 208 206 206 208 209 211 213 215 217 219 220 221 222 223 224 226 227 227 228 229 230 232 234 235 236
218 218 219 219 220 223 225 225 224 219 214 213 214 213 215 215 212 208 206 205 206 208 209 211 213 215 218 220 221 222 223 225 226 227 228 229 229 230 232 234 235 236
220 218 217 217 216 218 221 223 223 218 214 213 214 213 215 215 213 209 206 204 205 206 208 209 211 213 216 219 220 222 223 225 226 226 228 229 230 230 231 233 235 236
221 219 216 215 215 216 218 219 220 217 214 213 214 214 215 215 214 211 207 205 205 205 206 208 210 212 215 218 220 221 223 225 226 227 228 229 230 231 232 233 235 236
221 220 216 215 215 216 217 217 217 215 214 214 214 214 215 215 215 213 209 205 205 205 205 207 208 210 213 216 219 221 222 224 226 227 228 229 230 230 231 232 234 235
220 221 217 215 215 216 217 217 216 215 215 216 215 214 215 215 215 215 212 207 205 205 206 206 207 209 211 214 217 220 222 224 226 227 228 228 229 230 230 231 233 234
217 219 219 217 217 217 217 218 218 217 217 217 217 216 216 216 216 216 215 211 207 205 206 206 207 208 211 214 217 219 222 224 226 227 228 228 229 229 230 231 233 234
215 219 220 219 218 217 218 218 218 219 219 219 218 218 218 217 217 217 217 216 212 208 207 207 207 208 210 213 216 219 222 224 225 226 227 228 229 229 230 231 232 234
214 219 223 221 219 218 219 219 218 219 219 219 218 219 219 218 218 218 219 219 217 214 209 207 207 209 210 212 215 218 221 223 224 225 226 227 228 229 230 230 232 233
214 216 221 222 221 220 219 219 219 219 219 218 218 218 218 218 219 219 220 220 220 218 215 212 210 210 210 212 214 217 219 221 223 224 225 226 227 228 229 230 232 234
Height
5533 5539 5543 5546 5550 5554 5558 5562 5568 5572 5575 5580 5584 5588 5593 5597 5602 5606 5609 5612 5615 5618 5621 5624 5627 5631 5634 5637 5639 5641 5643 5645 5648 5650 5653 5655 5657 5659 5661 5663 5664 5665
5524 5530 5534 5538 5542 5546 5550 5555 5560 5564 5568 5573 5577 5581 5585 5590 5595 5598 5601 5605 5608 5611 5615 5619 5622 5625 5629 5632 5635 5637 5640 5642 5644 5646 5649 5651 5653 5655 5658 5659 5660 5662
5516 5521 5526 5530 5534 5538 5543 5548 5552 5556 5560 5564 5569 5574 5578 5583 5587 5591 5594 5598 5602 5605 5609 5613 5616 5619 5623 5627 5630 5632 5635 5637 5640 5643 5645 5647 5649 5651 5654 5655 5657 5659
5507 5512 5517 5521 5526 5530 5534 5539 5544 5548 5552 5556 5561 5566 5571 5575 5579 5583 5587 5591 5595 5598 5602 5606 5610 5614 5617 5621 5624 5627 5630 5632 5634 5637 5640 5643 5645 5648 5649 5651 5653 5656
5497 5503 5508 5512 5516 5521 5525 5530 5536 5540 5544 5549 5553 5558 5563 5568 5572 5576 5580 5584 5588 5592 5596 5600 5604 5608 5612 5615 5619 5622 5624 5627 5629 5632 5635 5638 5641 5644 5646 5648 5650 5652
5487 5492 5498 5502 5507 5512 5516 5523 5529 5533 5537 5541 5546 5550 5555 5560 5565 5569 5573 5578 5582 5586 5590 5594 5598 5602 5606 5610 5614 5617 5619 5622 5624 5627 5631 5634 5637 5639 5641 5643 5646 5648
5477 5482 5487 5492 5497 5502 5508 5515 5520 5524 5529 5533 5537 5542 5547 5552 5557 5562 5566 5571 5575 5579 5584 5588 5593 5597 5600 5604 5608 5611 5614 5617 5619 5622 5626 5629 5632 5634 5637 5639 5642 5644
5468 5472 5477 5482 5487 5493 5499 5505 5511 5516 5521 5525 5529 5534 5539 5544 5549 5555 5559 5563 5567 5572 5577 5582 5586 5591 5595 5598 5602 5605 5608 5611 5614 5617 5621 5624 5627 5629 5632 5635 5637 5639
5457 5463 5468 5473 5478 5485 5490 5496 5504 5509 5512 5517 5522 5526 5531 5536 5542 5547 5551 5555 5560 5566 5572 5576 5580 5585 5589 5592 5596 5600 5603 5606 5609 5613 5616 5620 5623 5625 5628 5630 5632 5634
5448 5454 5459 5464 5470 5477 5482 5488 5496 5501 5505 5510 5514 5517 5523 5529 5534 5539 5543 5548 5553 5559 5565 5569 5573 5578 5583 5587 5591 5595 5598 5600 5604 5608 5611 5615 5618 5620 5623 5625 5627 5629
5440 5444 5449 5456 5462 5469 5475 5480 5487 5492 5497 5502 5506 5509 5514 5520 5525 5531 5536 5541 5547 5552 5558 5563 5567 5572 5576 5581 5585 5589 5592 5595 5599 5602 5606 5610 5613 5615 5617 5620 5622 5624
5431 5436 5441 5448 5454 5461 5467 5472 5478 5484 5490 5495 5499 5502 5506 5511 5516 5523 5529 5535 5540 5545 5550 5557 5562 5566 5570 5575 5579 5583 5587 5590 5594 5597 5601 5604 5607 5610 5612 5615 5617 5619
5423 5428 5434 5440 5446 5452 5458 5463 5469 5476 5483 5488 5493 5496 5499 5503 5508 5514 5522 5528 5533 5538 5543 5549 5555 5559 5563 5568 5573 5578 5582 5585 5589 5592 5595 5599 5602 5604 5607 5610 5612 5614
5415 5420 5427 5432 5438 5443 5448 5455 5461 5468 5476 5481 5486 5491 5494 5497 5501 5506 5513 5520 5525 5531 5537 5542 5548 5553 5557 5562 5568 5573 5577 5579 5583 5586 5590 5593 5596 5599 5602 5604 5607 5609
5408 5412 5418 5425 5430 5435 5441 5448 5454 5461 5469 5475 5480 5486 5490 5492 5495 5498 5504 5511 5518 5525 5531 5536 5541 5546 5552 5558 5563 5567 5571 5574 5577 5581 5585 5588 5591 5594 5596 5599 5601 5604
5401 5405 5410 5417 5424 5429 5435 5442 5448 5454 5461 5468 5474 5480 5485 5487 5489 5492 5497 5504 5511 5518 5524 5530 5535 5541 5548 5553 5557 5561 5565 5569 5572 5576 5580 5583 5585 5588 5591 5593 5596 5600
5394 5398 5403 5410 5417 5423 5429 5435 5441 5446 5453 5461 5467 5473 5478 5481 5483 5486 5491 5497 5503 5510 5517 5524 5531 5537 5542 5547 5552 5555 5559 5563 5567 5571 5574 5577 5580 5583 5586 5588 5591 5594
5387 5391 5397 5404 5411 5417 5423 5428 5434 5439 5445 5453 5460 5466 5471 5476 5479 5481 5485 5490 5496 5503 5510 5518 5525 5531 5536 5541 5546 5550 5553 5557 5561 5565 5568 5571 5574 5577 5580 5583 5586 5589
5381 5385 5391 5399 5405 5410 5415 5420 5425 5431 5438 5446 5454 5460 5464 5469 5473 5476 5479 5484 5489 5496 5503 5511 5517 5523 5528 5533 5538 5543 5547 5551 5555 5558 5562 5565 5569 5572 5574 5577 5580 5583
5375 5379 5385 5392 5399 5403 5407 5412 5418 5425 5432 5439 5446 5452 5457 5463 5468 5472 5475 5478 5483 5489 5495 5502 5509 5514 5520 5525 5531 5536 5540 5544 5548 5552 5556 5559 5562 5566 5568 5571 5574 5577
5370 5374 5379 5386 5392 5397 5401 5407 5413 5420 5425 5431 5438 5446 5452 5458 5463 5467 5470 5473 5477 5482 5488 5494 5500 5506 5512 5518 5523 5528 5532 5537 5541 5545 5549 5552 5556 5559 5562 5565 5568 5571
5365 5369 5374 5379 5386 5391 5397 5403 5409 5415 5419 5425 5432 5440 5446 5451 5456 5461 5465 5468 5471 5476 5481 5487 5493 5498 5504 5510 5515 5521 5525 5530 5534 5538 5542 5545 5549 5552 5555 5558 5562 5565
5360 5364 5368 5373 5379 5386 5393 5399 5405 5409 5414 5420 5428 5435 5440 5446 5452 5457 5461 5464 5466 5470 5475 5481 5485 5491 5497 5503 5509 5514 5518 5523 5528 5532 5535 5539 5542 5546 5549 5552 5556 5559
5355 5360 5363 5367 5374 5381 5388 5394 5399 5403 5408 5416 5424 5431 5437 5442 5447 5452 5457 5462 5465 5468 5471 5475 5480 5485 5490 5496 5502 5507 5512 5517 5521 5525 5529 5532 5536 5540 5543 5546 5550 5553
5351 5355 5359 5363 5369 5376 5382 5387 5393 5398 5404 5411 5419 5427 5433 5438 5442 5447 5453 5459 5463 5466 5468 5471 5474 5479 5484 5490 5495 5500 5505 5509 5513 5517 5522 5526 5530 5533 5536 5540 5543 5546
5346 5351 5355 5359 5364 5370 5376 5382 5387 5393 5400 5407 5414 5421 5427 5432 5438 5443 5449 5454 5459 5462 5465 5467 5470 5474 5478 5482 5487 5492 5497 5501 5506 5510 5515 5519 5523 5527 5530 5533 5536 5539